sat.trackr.live / text

‹ back to catalog

ONEWEB-0712

NORAD 54680 · 2022-166AQ

PAYLOAD ACTIVE UNKNOWN

§ Identity

Operator
Country
UK
Launch date
2022-12-08
Launch site
AFETR
Launch vehicle
Mass (kg)
RCS (m²)

Purposes: comms

External: N2YO · Heavens-Above · Gunter

§ Orbital elements

Epoch: 2026-09-19T16:13:47.182656Z

Period
109.37 min
Inclination
87.9152°
Eccentricity
0.0002402
Mean motion
13.16593618 rev/d
Perigee alt
1,195.9 km
Apogee alt
1,199.6 km
Semi-major
7,575.9 km
B*
1.8584e-4
RAAN
210.0159°
Arg perigee
69.1436°
Mean anomaly
290.9952°
Rev number
18,449

§ Raw data

ONEWEB-07121 54680U 22166AQ  26262.67624054  .00000084  00000+0  18584-3 0  99922 54680  87.9152 210.0159 0002402  69.1436 290.9952 13.16593618184497

JSON: /api/v1/satellites/54680 · /tle

For live sub-satellite position, see the globe view (requires WebGL).

§ Visibility from observer

Set your observer location to see the next 7 days of passes ≥ 10°. The values pass through the URL so the page stays shareable.

No JS? Fill the form by hand. The geolocation button needs JavaScript.